Location: Coed Ely
(51.5661°N, 3.4150°W)
Time: 02:14:36
(UTC+00:00)

Cosmos 1092 Rocket - Pass Details

Date: 28 January 2021
Orbit: 954 x 995 km, 83.0° (Epoch: 28 February)

Event Time Altitude Azimuth Distance (km) Brightness Sun altitude
Rises 18:28:25 0° 188° (S) 3,640 7.3 -14.3°
Reaches altitude 10° 18:30:54 10° 189° (S) 2,693 6.6 -14.6°
Maximum altitude 18:37:05 87° 280° (W) 967 4.0 -15.6°
Drops below altitude 10° 18:43:16 10° 10° (N) 2,697 6.1 -16.5°
Sets 18:45:46 0° 11° (N) 3,646 6.8 -16.9°
